• în România
  • Lista ţărilor
  • Pe 7 zile
  • Temperatura apei
  • Hartă satelitară
  • Meteo pe hartă
  • Widget-uri
  • user-avatar
    Intrare

    Meteo pe oră la Sinemorec

    Astăzi, 23 Octombrie, Luni

    Timp Temperatura Precipitaţii Vânt Presiune Umiditate
    00:00 +14°C° 0 mm 4 m/s 759 mmHg 84%
    01:00 +14°C° 0 mm 4 m/s 758 mmHg 87%
    02:00 +13°C° 0 mm 4 m/s 758 mmHg 89%
    03:00 +13°C° 0 mm 4 m/s 757 mmHg 91%
    04:00 +13°C° 0 mm 4 m/s 757 mmHg 92%
    05:00 +13°C° 0 mm 4 m/s 756 mmHg 93%
    06:00 +14°C° 0 mm 5 m/s 756 mmHg 91%
    07:00 +14°C° 0 mm 5 m/s 756 mmHg 89%
    08:00 +15°C° 0 mm 5 m/s 755 mmHg 87%
    09:00 +17°C° 0 mm 5 m/s 755 mmHg 78%
    10:00 +19°C° 0 mm 5 m/s 754 mmHg 70%
    11:00 +21°C° 0 mm 5 m/s 754 mmHg 61%
    12:00 +22°C° 0 mm 5 m/s 753 mmHg 56%
    13:00 +23°C° 0 mm 5 m/s 753 mmHg 51%
    14:00 +25°C° 0 mm 5 m/s 752 mmHg 47%
    15:00 +23°C° 0 mm 5 m/s 752 mmHg 49%
    16:00 +22°C° 0 mm 5 m/s 752 mmHg 50%
    17:00 +21°C° 0 mm 4 m/s 751 mmHg 52%
    18:00 +20°C° 0 mm 4 m/s 751 mmHg 53%
    19:00 +20°C° 0 mm 4 m/s 751 mmHg 54%
    20:00 +19°C° 0 mm 4 m/s 751 mmHg 55%
    21:00 +19°C° 0 mm 4 m/s 751 mmHg 55%
    22:00 +18°C° 0 mm 4 m/s 750 mmHg 55%
    23:00 +18°C° 0 mm 4 m/s 750 mmHg 55%

    Mâine, 24 Octombrie, Marţi

    Timp Temperatura Precipitaţii Vânt Presiune Umiditate
    00:00 +18°C° 0 mm 4 m/s 750 mmHg 56%
    01:00 +18°C° 0 mm 4 m/s 750 mmHg 57%
    02:00 +18°C° 0 mm 4 m/s 750 mmHg 57%
    03:00 +17°C° 0,6 mm 5 m/s 750 mmHg 67%
    04:00 +16°C° 0,6 mm 5 m/s 749 mmHg 76%
    05:00 +16°C° 0,6 mm 6 m/s 749 mmHg 85%
    06:00 +16°C° 0,9 mm 6 m/s 750 mmHg 80%
    07:00 +17°C° 0,9 mm 6 m/s 750 mmHg 75%
    08:00 +17°C° 0,9 mm 6 m/s 750 mmHg 70%
    09:00 +19°C° 0,1 mm 6 m/s 750 mmHg 64%
    10:00 +21°C° 0,1 mm 6 m/s 751 mmHg 59%
    11:00 +22°C° 0,1 mm 6 m/s 751 mmHg 54%
    12:00 +22°C° 0,1 mm 6 m/s 751 mmHg 53%
    13:00 +22°C° 0,1 mm 6 m/s 751 mmHg 53%
    14:00 +22°C° 0,1 mm 5 m/s 751 mmHg 53%
    15:00 +21°C° 0,2 mm 6 m/s 752 mmHg 58%
    16:00 +20°C° 0,2 mm 6 m/s 752 mmHg 63%
    17:00 +19°C° 0,2 mm 6 m/s 752 mmHg 69%
    18:00 +19°C° 0,4 mm 6 m/s 753 mmHg 73%
    19:00 +17°C° 0,4 mm 6 m/s 753 mmHg 77%
    20:00 +17°C° 0,4 mm 7 m/s 754 mmHg 81%
    21:00 +17°C° 0,4 mm 6 m/s 754 mmHg 83%
    22:00 +17°C° 0,4 mm 6 m/s 754 mmHg 84%
    23:00 +17°C° 0,4 mm 6 m/s 755 mmHg 86%

    Poimâine, 25 Octombrie, Miercuri

    Timp Temperatura Precipitaţii Vânt Presiune Umiditate
    00:00 +17°C° 0,4 mm 7 m/s 755 mmHg 86%
    01:00 +17°C° 0,4 mm 8 m/s 755 mmHg 87%
    02:00 +17°C° 0,4 mm 8 m/s 756 mmHg 87%
    03:00 +16°C° 0,6 mm 9 m/s 756 mmHg 88%
    04:00 +16°C° 0,6 mm 10 m/s 756 mmHg 89%
    05:00 +16°C° 0,6 mm 10 m/s 757 mmHg 90%
    06:00 +16°C° 0,2 mm 10 m/s 757 mmHg 89%
    07:00 +16°C° 0,2 mm 11 m/s 758 mmHg 89%
    08:00 +14°C° 0,2 mm 11 m/s 758 mmHg 89%
    09:00 +14°C° 0,4 mm 11 m/s 759 mmHg 89%
    10:00 +14°C° 0,4 mm 10 m/s 760 mmHg 89%
    11:00 +14°C° 0,4 mm 10 m/s 760 mmHg 89%
    12:00 +13°C° 1 mm 10 m/s 761 mmHg 89%
    13:00 +13°C° 1 mm 10 m/s 761 mmHg 89%
    14:00 +13°C° 1 mm 11 m/s 761 mmHg 88%
    15:00 +12°C° 1,1 mm 11 m/s 762 mmHg 88%
    16:00 +12°C° 1,1 mm 10 m/s 762 mmHg 87%
    17:00 +12°C° 1,1 mm 10 m/s 763 mmHg 86%
    18:00 +11°C° 0,9 mm 10 m/s 763 mmHg 86%
    19:00 +11°C° 0,9 mm 10 m/s 764 mmHg 86%
    20:00 +11°C° 0,9 mm 10 m/s 765 mmHg 86%
    21:00 +11°C° 0,3 mm 10 m/s 765 mmHg 85%
    22:00 +11°C° 0,3 mm 9 m/s 765 mmHg 84%
    23:00 +10°C° 0,3 mm 9 m/s 766 mmHg 83%

    26 Octombrie, Joi

    Timp Temperatura Precipitaţii Vânt Presiune Umiditate
    00:00 +10°C° 0,1 mm 9 m/s 766 mmHg 82%
    01:00 +10°C° 0,1 mm 9 m/s 766 mmHg 81%
    02:00 +10°C° 0,1 mm 9 m/s 766 mmHg 80%
    03:00 +9°C° 0 mm 8 m/s 767 mmHg 80%
    04:00 +9°C° 0 mm 8 m/s 767 mmHg 80%
    05:00 +9°C° 0 mm 8 m/s 767 mmHg 80%
    06:00 +9°C° 0 mm 8 m/s 767 mmHg 78%
    07:00 +9°C° 0 mm 8 m/s 768 mmHg 76%
    08:00 +9°C° 0 mm 7 m/s 768 mmHg 74%
    09:00 +11°C° 0 mm 7 m/s 768 mmHg 70%
    10:00 +12°C° 0 mm 7 m/s 768 mmHg 66%
    11:00 +14°C° 0 mm 6 m/s 769 mmHg 62%
    12:00 +14°C° 0 mm 6 m/s 768 mmHg 60%
    13:00 +15°C° 0 mm 5 m/s 768 mmHg 59%
    14:00 +15°C° 0 mm 5 m/s 768 mmHg 58%
    15:00 +14°C° 0 mm 4 m/s 767 mmHg 62%
    16:00 +13°C° 0 mm 3 m/s 767 mmHg 66%
    17:00 +12°C° 0 mm 3 m/s 767 mmHg 70%
    18:00 +13°C° 0 mm 2 m/s 767 mmHg 72%
    19:00 +12°C° 0 mm 2 m/s 767 mmHg 75%
    20:00 +11°C° 0 mm 1 m/s 768 mmHg 77%
    21:00 +11°C° 0 mm 1 m/s 767 mmHg 77%
    22:00 +11°C° 0 mm 1 m/s 767 mmHg 77%
    23:00 +11°C° 0 mm 1 m/s 767 mmHg 77%

    27 Octombrie, Vineri

    Timp Temperatura Precipitaţii Vânt Presiune Umiditate
    00:00 +11°C° 0 mm 1 m/s 766 mmHg 78%
    01:00 +10°C° 0 mm 2 m/s 766 mmHg 78%
    02:00 +10°C° 0 mm 2 m/s 766 mmHg 78%
    03:00 +9°C° 0 mm 2 m/s 765 mmHg 78%
    04:00 +9°C° 0 mm 2 m/s 765 mmHg 79%
    05:00 +9°C° 0 mm 2 m/s 764 mmHg 79%
    06:00 +10°C° 0 mm 2 m/s 764 mmHg 76%
    07:00 +11°C° 0 mm 3 m/s 764 mmHg 74%
    08:00 +11°C° 0 mm 3 m/s 764 mmHg 71%
    09:00 +13°C° 0 mm 3 m/s 763 mmHg 64%
    10:00 +16°C° 0 mm 3 m/s 763 mmHg 57%
    11:00 +18°C° 0 mm 3 m/s 762 mmHg 50%
    12:00 +19°C° 0 mm 3 m/s 762 mmHg 48%
    13:00 +20°C° 0 mm 3 m/s 761 mmHg 47%
    14:00 +20°C° 0 mm 3 m/s 760 mmHg 45%
    15:00 +19°C° 0 mm 3 m/s 759 mmHg 50%
    16:00 +18°C° 0 mm 3 m/s 759 mmHg 55%
    17:00 +16°C° 0 mm 3 m/s 758 mmHg 61%
    18:00 +15°C° 0 mm 4 m/s 758 mmHg 63%
    19:00 +14°C° 0 mm 4 m/s 758 mmHg 65%
    20:00 +13°C° 0 mm 4 m/s 757 mmHg 68%
    21:00 +13°C° 0 mm 4 m/s 757 mmHg 70%
    22:00 +13°C° 0 mm 4 m/s 757 mmHg 73%
    23:00 +13°C° 0 mm 4 m/s 756 mmHg 75%

    28 Octombrie, Sâmbătă

    Timp Temperatura Precipitaţii Vânt Presiune Umiditate
    00:00 +13°C° 0 mm 4 m/s 756 mmHg 77%
    01:00 +13°C° 0 mm 4 m/s 755 mmHg 79%
    02:00 +12°C° 0 mm 5 m/s 755 mmHg 81%
    03:00 +12°C° 0 mm 5 m/s 754 mmHg 83%
    04:00 +12°C° 0 mm 5 m/s 754 mmHg 85%
    05:00 +12°C° 0 mm 5 m/s 753 mmHg 86%
    06:00 +13°C° 0 mm 5 m/s 753 mmHg 85%
    07:00 +13°C° 0 mm 5 m/s 754 mmHg 84%
    08:00 +14°C° 0 mm 6 m/s 754 mmHg 83%
    09:00 +15°C° 0 mm 5 m/s 754 mmHg 78%
    10:00 +17°C° 0 mm 5 m/s 754 mmHg 73%
    11:00 +19°C° 0 mm 5 m/s 754 mmHg 68%
    12:00 +20°C° 0 mm 4 m/s 753 mmHg 65%
    13:00 +20°C° 0 mm 4 m/s 753 mmHg 62%
    14:00 +21°C° 0 mm 3 m/s 753 mmHg 60%
    15:00 +20°C° 0,1 mm 3 m/s 753 mmHg 65%
    16:00 +19°C° 0,1 mm 3 m/s 753 mmHg 71%
    17:00 +17°C° 0,1 mm 3 m/s 753 mmHg 77%
    18:00 +17°C° 1,1 mm 3 m/s 753 mmHg 80%
    19:00 +16°C° 1,1 mm 3 m/s 753 mmHg 84%
    20:00 +16°C° 1,1 mm 3 m/s 753 mmHg 88%
    21:00 +16°C° 2,4 mm 3 m/s 752 mmHg 89%
    22:00 +14°C° 2,4 mm 4 m/s 752 mmHg 91%
    23:00 +14°C° 2,4 mm 4 m/s 752 mmHg 93%

    29 Octombrie, Duminică

    Timp Temperatura Precipitaţii Vânt Presiune Umiditate
    00:00 +14°C° 2,2 mm 4 m/s 752 mmHg 94%
    01:00 +14°C° 2,2 mm 4 m/s 751 mmHg 94%
    02:00 +14°C° 2,2 mm 4 m/s 751 mmHg 95%
    03:00 +14°C° 0,9 mm 4 m/s 751 mmHg 95%
    04:00 +13°C° 0,9 mm 4 m/s 750 mmHg 94%
    05:00 +13°C° 0,9 mm 4 m/s 750 mmHg 94%
    06:00 +13°C° 0,8 mm 4 m/s 750 mmHg 94%
    07:00 +13°C° 0,8 mm 4 m/s 750 mmHg 95%
    08:00 +12°C° 0,8 mm 4 m/s 750 mmHg 95%
    09:00 +12°C° 1,9 mm 5 m/s 750 mmHg 94%
    10:00 +11°C° 1,9 mm 6 m/s 750 mmHg 93%
    11:00 +10°C° 1,9 mm 7 m/s 749 mmHg 91%
    12:00 +10°C° 1,4 mm 7 m/s 749 mmHg 91%
    13:00 +10°C° 1,4 mm 7 m/s 749 mmHg 90%
    14:00 +10°C° 1,4 mm 8 m/s 749 mmHg 89%
    15:00 +10°C° 0,6 mm 8 m/s 749 mmHg 89%
    16:00 +10°C° 0,6 mm 8 m/s 749 mmHg 90%
    17:00 +10°C° 0,6 mm 8 m/s 749 mmHg 90%
    18:00 +10°C° 0,6 mm 9 m/s 750 mmHg 90%
    19:00 +11°C° 0,6 mm 9 m/s 750 mmHg 91%
    20:00 +11°C° 0,6 mm 10 m/s 750 mmHg 91%
    21:00 +11°C° 0,4 mm 10 m/s 751 mmHg 90%
    22:00 +9°C° 0,4 mm 10 m/s 751 mmHg 89%
    23:00 +9°C° 0,4 mm 10 m/s 751 mmHg 87%
    Arată mai mult